This is the latest recevied weather packets stored in our database for station/object KO4APQ. If no packets are shown the sender has not sent any weather packets the latest 10 day(s).
| Time | Temp. | Humidity | Pressure | Rain* | Wind** | Luminosity | Snow |
|---|---|---|---|---|---|---|---|
| 1777768957 | 12.22° C | 74% | 1014.4 hPa | 0 mm | - | 0 W/m² | - |
| 1777768654 | 12.78° C | 74% | 1014.5 hPa | 0 mm | - | 0 W/m² | - |
| 1777768351 | 12.78° C | 75% | 1014.2 hPa | 0 mm | - | 0 W/m² | - |
| 1777768048 | 13.33° C | 72% | 1014.3 hPa | 0 mm | - | 1 W/m² | - |
| 1777767745 | 13.89° C | 72% | 1014.1 hPa | 0 mm | - | 3 W/m² | - |
| 1777767441 | 13.89° C | 71% | 1014 hPa | 0 mm | - | 5 W/m² | - |
| 1777767137 | 14.44° C | 72% | 1013.7 hPa | 0 mm | - | 8 W/m² | - |
| 1777766835 | 15° C | 73% | 1013.7 hPa | 0 mm | - | 12 W/m² | - |
| 1777766533 | 15.56° C | 74% | 1013.7 hPa | 0 mm | - | 17 W/m² | - |
| 1777766229 | 15.56° C | 77% | 1013.7 hPa | 0 mm | - | 24 W/m² | - |
| 1777765928 | 16.11° C | 75% | 1013.5 hPa | 0 mm | - | 35 W/m² | - |
| 1777765623 | 16.11° C | 77% | 1013.3 hPa | 0 mm | - | 41 W/m² | - |
| 1777765321 | 16.11° C | 79% | 1013.4 hPa | 0 mm | - | 43 W/m² | - |
| 1777765016 | 15.56° C | 79% | 1013.1 hPa | 0 mm | - | 43 W/m² | - |
| 1777764713 | 15.56° C | 78% | 1013.3 hPa | 0 mm | - | 36 W/m² | - |
| 1777764409 | 15.56° C | 77% | 1013.3 hPa | 0 mm | - | 34 W/m² | - |
| 1777764107 | 16.11° C | 75% | 1012.8 hPa | 0 mm | - | 39 W/m² | - |
| 1777763803 | 16.67° C | 73% | 1012.9 hPa | 0 mm | - | 46 W/m² | - |
| 1777763501 | 17.22° C | 71% | 1012.9 hPa | 0 mm | - | 58 W/m² | - |
| 1777763200 | 17.78° C | 67% | 1012.4 hPa | 0 mm | - | 69 W/m² | - |
| 1777762898 | 17.22° C | 69% | 1012.6 hPa | 0 mm | - | 115 W/m² | - |
| 1777762592 | 17.22° C | 68% | 1012.7 hPa | 0 mm | - | 95 W/m² | - |
| 1777762291 | 17.22° C | 66% | 1012.4 hPa | 0 mm | - | 175 W/m² | - |
| 1777761986 | 17.22° C | 71% | 1012.4 hPa | 0 mm | - | 199 W/m² | - |
| 1777761683 | 17.22° C | 68% | 1012.3 hPa | 0 mm | - | 179 W/m² | - |
* Rain latest hour (hover to see other rain measurements)
** Current wind speed in m/s (hover to see current wind gust speed)